• în România
  • Lista ţărilor
  • Pe 7 zile
  • Temperatura apei
  • Hartă satelitară
  • Meteo pe hartă
  • Widget-uri
  • user-avatar
    Intrare

    Meteo pe oră la Mendoza

    Astăzi, 28 Mai, Duminică

    Timp Temperatura Precipitaţii Vânt Presiune Umiditate
    00:00 +8°C° 0 mm 1 m/s 701 mmHg 72%
    01:00 +7°C° 0 mm 1 m/s 701 mmHg 71%
    02:00 +7°C° 0 mm 1 m/s 700 mmHg 71%
    03:00 +7°C° 0 mm 1 m/s 700 mmHg 71%
    04:00 +7°C° 0 mm 1 m/s 700 mmHg 71%
    05:00 +7°C° 0 mm 1 m/s 700 mmHg 69%
    06:00 +7°C° 0 mm 1 m/s 700 mmHg 68%
    07:00 +7°C° 0 mm 1 m/s 700 mmHg 67%
    08:00 +9°C° 0 mm 1 m/s 700 mmHg 60%
    09:00 +10°C° 0 mm 2 m/s 700 mmHg 53%
    10:00 +13°C° 0 mm 2 m/s 701 mmHg 46%
    11:00 +13°C° 0 mm 2 m/s 700 mmHg 44%
    12:00 +14°C° 0 mm 2 m/s 700 mmHg 42%
    13:00 +15°C° 0 mm 2 m/s 699 mmHg 39%
    14:00 +14°C° 0 mm 2 m/s 699 mmHg 42%
    15:00 +14°C° 0 mm 2 m/s 699 mmHg 44%
    16:00 +13°C° 0 mm 1 m/s 699 mmHg 46%
    17:00 +12°C° 0 mm 1 m/s 699 mmHg 50%
    18:00 +11°C° 0 mm 1 m/s 699 mmHg 54%
    19:00 +9°C° 0 mm 2 m/s 699 mmHg 58%
    20:00 +10°C° 0 mm 1 m/s 700 mmHg 58%
    21:00 +9°C° 0 mm 1 m/s 700 mmHg 59%
    22:00 +9°C° 0 mm 1 m/s 700 mmHg 59%
    23:00 +9°C° 0 mm 1 m/s 700 mmHg 59%

    Mâine, 29 Mai, Luni

    Timp Temperatura Precipitaţii Vânt Presiune Umiditate
    00:00 +8°C° 0 mm 1 m/s 700 mmHg 58%
    01:00 +8°C° 0 mm 1 m/s 700 mmHg 58%
    02:00 +8°C° 0 mm 1 m/s 699 mmHg 58%
    03:00 +8°C° 0 mm 1 m/s 699 mmHg 58%
    04:00 +8°C° 0 mm 1 m/s 699 mmHg 59%
    05:00 +8°C° 0 mm 1 m/s 699 mmHg 59%
    06:00 +8°C° 0 mm 1 m/s 699 mmHg 59%
    07:00 +8°C° 0 mm 1 m/s 700 mmHg 59%
    08:00 +10°C° 0 mm 1 m/s 700 mmHg 53%
    09:00 +11°C° 0 mm 1 m/s 701 mmHg 47%
    10:00 +13°C° 0 mm 1 m/s 701 mmHg 40%
    11:00 +14°C° 0 mm 1 m/s 701 mmHg 39%
    12:00 +15°C° 0 mm 2 m/s 700 mmHg 38%
    13:00 +15°C° 0 mm 2 m/s 700 mmHg 37%
    14:00 +15°C° 0 mm 2 m/s 700 mmHg 39%
    15:00 +14°C° 0 mm 2 m/s 700 mmHg 42%
    16:00 +14°C° 0 mm 1 m/s 700 mmHg 45%
    17:00 +13°C° 0 mm 1 m/s 700 mmHg 48%
    18:00 +12°C° 0 mm 1 m/s 700 mmHg 51%
    19:00 +11°C° 0 mm 1 m/s 701 mmHg 54%
    20:00 +11°C° 0 mm 1 m/s 701 mmHg 54%
    21:00 +11°C° 0 mm 1 m/s 701 mmHg 53%
    22:00 +11°C° 0 mm 1 m/s 702 mmHg 53%
    23:00 +11°C° 0 mm 1 m/s 702 mmHg 54%

    Poimâine, 30 Mai, Marţi

    Timp Temperatura Precipitaţii Vânt Presiune Umiditate
    00:00 +11°C° 0 mm 1 m/s 702 mmHg 54%
    01:00 +10°C° 0 mm 1 m/s 702 mmHg 55%
    02:00 +10°C° 0,1 mm 1 m/s 701 mmHg 57%
    03:00 +10°C° 0,1 mm 1 m/s 701 mmHg 58%
    04:00 +10°C° 0,1 mm 1 m/s 701 mmHg 60%
    05:00 +9°C° 0 mm 1 m/s 701 mmHg 61%
    06:00 +9°C° 0 mm 1 m/s 701 mmHg 62%
    07:00 +9°C° 0 mm 1 m/s 701 mmHg 62%
    08:00 +11°C° 0 mm 1 m/s 702 mmHg 55%
    09:00 +13°C° 0 mm 2 m/s 702 mmHg 48%
    10:00 +15°C° 0 mm 2 m/s 703 mmHg 41%
    11:00 +16°C° 0 mm 2 m/s 702 mmHg 39%
    12:00 +17°C° 0 mm 2 m/s 702 mmHg 36%
    13:00 +17°C° 0 mm 2 m/s 701 mmHg 34%
    14:00 +17°C° 0 mm 2 m/s 701 mmHg 36%
    15:00 +16°C° 0 mm 2 m/s 701 mmHg 38%
    16:00 +16°C° 0 mm 2 m/s 701 mmHg 41%
    17:00 +15°C° 0 mm 2 m/s 701 mmHg 44%
    18:00 +14°C° 0 mm 2 m/s 701 mmHg 47%
    19:00 +12°C° 0 mm 2 m/s 702 mmHg 51%
    20:00 +12°C° 0 mm 2 m/s 702 mmHg 52%
    21:00 +12°C° 0 mm 1 m/s 702 mmHg 53%
    22:00 +11°C° 0 mm 1 m/s 702 mmHg 54%
    23:00 +11°C° 0 mm 1 m/s 701 mmHg 55%

    31 Mai, Miercuri

    Timp Temperatura Precipitaţii Vânt Presiune Umiditate
    00:00 +10°C° 0 mm 1 m/s 701 mmHg 56%
    01:00 +10°C° 0 mm 1 m/s 701 mmHg 56%
    02:00 +10°C° 0 mm 1 m/s 700 mmHg 58%
    03:00 +9°C° 0 mm 1 m/s 700 mmHg 59%
    04:00 +9°C° 0 mm 1 m/s 700 mmHg 60%
    05:00 +9°C° 0 mm 1 m/s 700 mmHg 60%
    06:00 +9°C° 0 mm 1 m/s 701 mmHg 60%
    07:00 +9°C° 0 mm 1 m/s 701 mmHg 61%
    08:00 +11°C° 0 mm 1 m/s 701 mmHg 54%
    09:00 +13°C° 0 mm 1 m/s 702 mmHg 47%
    10:00 +15°C° 0 mm 1 m/s 702 mmHg 41%
    11:00 +16°C° 0 mm 2 m/s 701 mmHg 39%
    12:00 +17°C° 0 mm 2 m/s 701 mmHg 37%
    13:00 +17°C° 0 mm 3 m/s 700 mmHg 36%
    14:00 +17°C° 0 mm 2 m/s 700 mmHg 38%
    15:00 +16°C° 0 mm 2 m/s 700 mmHg 41%
    16:00 +15°C° 0 mm 2 m/s 699 mmHg 44%
    17:00 +14°C° 0 mm 2 m/s 699 mmHg 47%
    18:00 +13°C° 0 mm 2 m/s 700 mmHg 50%
    19:00 +12°C° 0 mm 2 m/s 700 mmHg 53%
    20:00 +10°C° 0 mm 2 m/s 699 mmHg 54%
    21:00 +11°C° 0 mm 1 m/s 699 mmHg 55%
    22:00 +11°C° 0 mm 1 m/s 699 mmHg 55%
    23:00 +10°C° 0 mm 1 m/s 699 mmHg 56%

    1 Iunie, Joi

    Timp Temperatura Precipitaţii Vânt Presiune Umiditate
    00:00 +10°C° 0 mm 1 m/s 699 mmHg 58%
    01:00 +9°C° 0 mm 1 m/s 699 mmHg 59%
    02:00 +9°C° 0 mm 1 m/s 698 mmHg 61%
    03:00 +8°C° 0 mm 2 m/s 698 mmHg 63%
    04:00 +8°C° 0 mm 2 m/s 698 mmHg 65%
    05:00 +8°C° 0 mm 2 m/s 698 mmHg 65%
    06:00 +8°C° 0 mm 2 m/s 698 mmHg 66%
    07:00 +7°C° 0 mm 2 m/s 698 mmHg 67%
    08:00 +9°C° 0 mm 2 m/s 699 mmHg 62%
    09:00 +12°C° 0 mm 2 m/s 699 mmHg 57%
    10:00 +14°C° 0 mm 2 m/s 699 mmHg 52%
    11:00 +15°C° 0 mm 2 m/s 699 mmHg 50%
    12:00 +16°C° 0 mm 2 m/s 698 mmHg 48%
    13:00 +17°C° 0 mm 2 m/s 698 mmHg 45%
    14:00 +16°C° 0 mm 2 m/s 698 mmHg 49%
    15:00 +16°C° 0 mm 1 m/s 698 mmHg 52%
    16:00 +15°C° 0 mm 1 m/s 698 mmHg 56%
    17:00 +14°C° 0 mm 1 m/s 698 mmHg 60%
    18:00 +13°C° 0 mm 1 m/s 698 mmHg 64%
    19:00 +12°C° 0 mm 2 m/s 699 mmHg 68%
    20:00 +11°C° 0 mm 1 m/s 699 mmHg 69%
    21:00 +11°C° 0 mm 1 m/s 699 mmHg 69%
    22:00 +11°C° 0 mm 1 m/s 699 mmHg 70%
    23:00 +10°C° 0 mm 1 m/s 698 mmHg 71%

    2 Iunie, Vineri

    Timp Temperatura Precipitaţii Vânt Presiune Umiditate
    00:00 +10°C° 0 mm 1 m/s 698 mmHg 72%
    01:00 +10°C° 0 mm 1 m/s 698 mmHg 72%
    02:00 +8°C° 0 mm 2 m/s 698 mmHg 73%
    03:00 +8°C° 0 mm 2 m/s 697 mmHg 74%
    04:00 +8°C° 0 mm 2 m/s 697 mmHg 74%
    05:00 +8°C° 0 mm 2 m/s 697 mmHg 75%
    06:00 +8°C° 0 mm 2 m/s 698 mmHg 75%
    07:00 +8°C° 0 mm 2 m/s 698 mmHg 75%
    08:00 +10°C° 0 mm 2 m/s 698 mmHg 70%
    09:00 +13°C° 0 mm 2 m/s 698 mmHg 65%
    10:00 +14°C° 0 mm 2 m/s 698 mmHg 60%
    11:00 +15°C° 0 mm 2 m/s 697 mmHg 57%
    12:00 +16°C° 0 mm 2 m/s 697 mmHg 54%
    13:00 +17°C° 0 mm 2 m/s 696 mmHg 51%
    14:00 +17°C° 0 mm 2 m/s 696 mmHg 52%
    15:00 +16°C° 0 mm 2 m/s 695 mmHg 54%
    16:00 +16°C° 0 mm 2 m/s 695 mmHg 56%
    17:00 +15°C° 0 mm 2 m/s 695 mmHg 59%
    18:00 +13°C° 0 mm 2 m/s 695 mmHg 62%
    19:00 +12°C° 0 mm 2 m/s 695 mmHg 65%
    20:00 +12°C° 0 mm 2 m/s 695 mmHg 67%
    21:00 +12°C° 0 mm 2 m/s 694 mmHg 68%
    22:00 +10°C° 0 mm 2 m/s 694 mmHg 69%
    23:00 +10°C° 0 mm 2 m/s 694 mmHg 69%
    Arată mai mult